This demonstration page uses our WeatherBlox Daily Observations layout. Learn more.

Left ArrowRight Arrow

Hourly Observations for January 5, 2021

Temp ( °F °C ) Dew Point ( °F °C ) Humidity (%) Winds ( mph kmh ) Pressure ( in mb ) Visibility ( mi km ) Precip ( " mm )
12:53 am 00:53 Mostly Cloudy 30 -1.1 24 -4.4 79 79 Calm 29.62 1003 10 16 0.00 0.00
1:53 am 01:53 Clear 33 0.6 26 -3.3 75 75 SW 9 15 29.63 1003 10 16 0.00 0.00
2:53 am 02:53 Partly Cloudy 38 3.3 29 -1.7 70 70 SW 14 22 29.64 1004 10 16 0.00 0.00
3:53 am 03:53 Partly Cloudy 40 4.4 29 -1.7 65 65 SW 16 26 29.66 1005 10 16 0.00 0.00
4:53 am 04:53 Clear 38 3.3 28 -2.2 68 68 SW 15 24 29.71 1006 10 16 0.00 0.00
5:53 am 05:53 Mostly Clear 43 6.1 25 -3.9 49 49 W 26 43 29.74 1007 10 16 0.00 0.00
6:53 am 06:53 Partly Cloudy 42 5.6 24 -4.4 49 49 W 24 39 29.79 1009 10 16 0.00 0.00
7:53 am 07:53 Clear 40 4.4 25 -3.9 55 55 W 22 35 29.83 1010 10 16 0.00 0.00
8:53 am 08:53 Mostly Cloudy 38 3.3 25 -3.9 60 60 W 14 22 29.91 1013 10 16 0.00 0.00
9:53 am 09:53 Cloudy 40 4.4 29 -1.7 65 65 WNW 22 35 29.95 1014 10 16 0.00 0.00
10:53 am 10:53 Mostly Sunny 38 3.3 32 0 79 79 WNW 25 41 30.01 1016 10 16 0.00 0.00
11:53 am 11:53 Cloudy 41 5 31 -0.6 67 67 WNW 20 31 30.03 1017 10 16 0.00 0.00
12:53 pm 12:53 Mostly Cloudy 44 6.7 32 0 63 63 WNW 15 24 30.04 1017 10 16 0.00 0.00
1:53 pm 13:53 Sunny 45 7.2 28 -2.2 52 52 WNW 20 31 30.06 1018 10 16 0.00 0.00
3:53 pm 15:53 Sunny 41 5 25 -3.9 53 53 W 8 13 30.10 1019 10 16 0.00 0.00
4:53 pm 16:53 Clear 32 0 22 -5.6 66 66 SW 8 13 30.12 1020 10 16 0.00 0.00
5:53 pm 17:53 Clear 28 -2.2 21 -6.1 75 75 S 12 19 30.12 1020 10 16 0.00 0.00
6:53 pm 18:53 Clear 30 -1.1 21 -6.1 69 69 W 5 7 30.13 1020 10 16 0.00 0.00
7:53 pm 19:53 Clear 31 -0.6 21 -6.1 67 67 SSW 10 17 30.15 1021 10 16 0.00 0.00
8:53 pm 20:53 Clear 24 -4.4 18 -7.8 77 77 WSW 3 6 30.15 1021 10 16 0.00 0.00
9:53 pm 21:53 Clear 29 -1.7 19 -7.2 66 66 SW 10 17 30.13 1020 10 16 0.00 0.00
10:53 pm 22:53 Clear 28 -2.2 19 -7.2 69 69 SW 12 19 30.11 1020 10 16 0.00 0.00
11:53 pm 23:53 undefined 29 -1.7 19 -7.2 66 66 SW 15 24 30.09 1019 10 16 0.00 0.00

Powered by AerisWeather